Location: Davayat
(45.9471°N, 3.1105°E)
Time: 13:19:59
(UTC+00:00)

Nadezhda 1 Rocket - Pass Details

Date: 01 December 2020
Orbit: 940 x 1006 km, 83.0° (Epoch: 26 January)

Event Time Altitude Azimuth Distance (km) Brightness Sun altitude
Rises 16:25:16 0° 188° (S) 3,697 7.6 -4.0°
Reaches altitude 10° 16:27:46 10° 189° (S) 2,759 6.9 -4.4°
Maximum altitude 16:34:08 83° 278° (W) 1,017 4.2 -5.4°
Drops below altitude 10° 16:40:36 10° 7° (N) 2,793 6.1 -6.4°
Sets 16:43:09 0° 9° (N) 3,746 6.7 -6.8°
